Cloud_Cover
100 85 82 55 100 100 100 100 100 100 100 100 100 100 100 100 100 100 100 100 94 48 69 54 66 75 36 96 99 100 100 100 100 100 100 100 100 60 5 1 12 5 1 0 0 0 0
100 76 85 80 95 100 100 100 100 100 100 100 100 100 100 100 100 96 100 100 100 100 100 100 100 100 100 100 100 100 100 100 100 99 100 100 47 13 3 0 0 1 2 5 0 0 0
100 100 100 100 100 100 100 100 100 100 100 100 100 100 100 100 100 100 99 81 100 78 76 100 100 100 100 100 100 100 100 100 98 66 76 92 34 1 0 0 0 0 0 0 0 1 0
100 100 100 100 100 100 100 100 100 100 100 100 100 58 99 100 100 100 100 100 100 100 99 5 1 8 8 49 100 36 0 2 0 0 4 0 0 0 0 0 0 0 0 0 0 0 0
100 100 100 100 100 100 100 100 100 100 100 100 98 97 100 71 96 100 100 100 30 62 5 5 21 6 3 5 85 5 5 1 0 2 0 0 0 0 0 0 0 0 0 0 0 0 0
100 100 94 100 100 94 99 100 100 100 100 100 100 100 100 70 82 100 100 100 20 99 24 57 5 62 92 100 36 1 0 0 0 0 0 1 7 5 3 14 63 0 0 0 0 0 0
100 100 100 100 100 100 100 100 100 100 100 100 100 100 100 100 100 100 100 100 29 81 88 93 50 6 0 2 5 2 0 0 0 0 0 0 2 12 0 6 90 100 70 27 0 0 0
100 100 100 93 100 100 100 100 100 100 100 100 100 100 100 100 100 100 100 100 100 100 100 100 100 52 11 5 0 2 0 0 0 0 0 0 2 8 100 100 58 0 94 75 1 0 7
100 100 100 100 100 100 100 100 100 100 100 100 100 100 100 100 100 100 100 100 100 100 100 100 63 28 11 0 0 0 0 0 0 0 0 0 0 40 69 5 100 0 31 100 18 0 63
100 100 100 100 92 100 100 100 100 84 100 100 100 100 100 100 100 100 100 100 100 100 92 98 24 13 5 0 3 0 0 0 0 0 0 1 98 89 100 38 71 0 2 77 90 4 43
100 100 100 93 100 100 100 100 100 100 100 98 100 100 100 100 100 100 100 100 100 100 51 74 100 28 40 2 0 0 3 5 2 3 21 38 1 86 46 4 54 100 100 75 70 0 98
100 100 100 100 100 100 100 100 100 100 99 100 92 100 100 100 100 100 100 100 100 100 100 100 99 100 100 2 0 0 5 56 33 5 5 2 0 4 0 92 100 84 29 78 24 0 41
100 100 100 100 100 100 100 100 100 100 100 100 100 85 100 100 100 100 100 100 100 100 96 100 100 95 5 2 0 0 5 81 73 88 5 6 15 29 100 99 18 5 96 78 70 50 6
100 100 94 100 100 100 100 100 100 100 100 100 100 100 100 100 100 100 100 100 100 100 100 100 100 28 0 8 4 4 5 5 53 88 92 100 100 65 99 88 15 65 55 94 100 92 100
100 100 100 100 100 100 100 100 100 100 100 100 100 100 100 100 100 100 100 100 92 99 100 100 38 5 0 3 77 61 5 86 93 100 100 100 100 22 89 36 100 13 92 100 100 100 96
100 100 100 100 100 100 100 100 100 100 100 100 100 100 100 100 100 100 100 100 100 100 100 78 21 5 24 23 94 22 12 74 87 100 100 100 89 97 93 82 68 56 92 100 100 81 100
100 100 100 100 100 100 100 100 100 100 100 100 100 100 100 100 100 100 100 87 93 100 71 1 4 27 30 91 86 35 28 70 97 87 100 100 100 100 91 70 51 92 100 100 100 100 100
100 100 100 100 100 100 100 100 100 100 100 100 100 100 100 100 100 100 98 94 77 6 0 0 4 8 97 52 95 99 54 99 99 100 100 100 100 100 100 100 100 100 100 100 100 100 100
100 100 100 100 100 100 100 100 100 100 100 100 100 100 100 100 100 100 100 100 60 2 0 5 3 27 59 66 75 68 78 94 96 95 94 97 100 100 100 100 100 100 100 100 100 100 100
100 100 100 100 100 100 100 100 100 100 100 100 100 100 100 100 100 100 100 66 5 5 4 5 5 4 1 7 53 81 94 18 44 6 43 100 100 100 100 100 100 100 100 100 100 100 100
100 100 100 100 100 100 100 100 100 100 100 100 100 100 100 100 100 100 46 7 5 5 5 5 4 0 5 2 7 22 89 65 49 5 80 100 100 100 100 100 100 100 100 100 100 100 100
100 100 100 100 100 100 100 100 100 100 100 100 100 100 100 100 100 100 31 8 5 5 4 4 0 0 0 0 0 4 52 7 5 81 87 100 100 100 100 100 100 100 100 100 100 100 100
100 100 100 100 100 100 100 100 100 100 100 100 100 100 100 100 100 88 5 9 5 5 0 4 3 0 0 0 0 56 73 79 98 84 100 100 100 100 100 100 100 100 100 100 100 100 100
100 100 100 100 100 100 100 100 100 100 100 100 100 100 100 100 58 18 5 5 5 5 3 0 0 0 0 0 0 3 6 49 100 100 100 100 100 100 100 100 100 100 100 100 100 100 100
100 100 100 100 100 100 100 100 100 100 100 100 100 100 100 100 14 6 12 3 5 5 1 0 0 0 0 0 1 52 8 98 100 100 100 100 100 100 100 100 100 100 100 100 100 100 100
100 100 100 100 100 100 100 100 100 100 100 100 100 100 66 25 61 5 5 5 5 0 0 0 0 0 0 4 5 95 89 100 100 100 100 100 100 100 100 100 100 100 100 100 100 100 100
100 100 100 100 100 100 100 100 100 100 100 100 100 100 99 82 25 4 5 1 5 1 0 2 0 1 0 8 5 81 100 98 100 100 100 100 100 100 100 100 99 100 100 100 100 100 100
100 100 100 100 100 100 100 100 100 100 100 100 100 24 61 74 5 5 5 0 3 0 5 1 17 5 4 9 5 80 100 100 100 100 100 100 100 100 100 100 96 100 77 83 100 100 100
100 100 100 100 100 100 100 100 100 100 100 100 100 40 6 6 5 5 5 0 0 0 1 5 26 22 6 5 6 54 100 99 100 100 100 100 100 100 100 100 100 100 100 100 100 100 100